Year,Month,Day,Hour,Minute,Value (Times are PST for windgust in km/hr)
2018,01,22,00,47,4.80
2018,01,22,00,48,3.20
2018,01,22,00,49,3.20
2018,01,22,00,50,3.20
2018,01,22,00,51,4.80
2018,01,22,00,52,3.20
2018,01,22,00,53,3.20
2018,01,22,01,04,3.20
2018,01,22,01,05,4.80
2018,01,22,01,06,3.20
2018,01,22,01,07,3.20
2018,01,22,01,08,3.20
2018,01,22,01,09,1.60
2018,01,22,01,15,3.20
2018,01,22,01,16,4.80
2018,01,22,01,17,4.80
2018,01,22,01,18,4.80
2018,01,22,01,19,4.80
2018,01,22,01,20,3.20
2018,01,22,01,21,3.20
2018,01,22,01,22,4.80
2018,01,22,01,23,3.20
2018,01,22,01,24,3.20
2018,01,22,01,25,1.60
2018,01,22,01,29,3.20
2018,01,22,01,30,4.80
2018,01,22,01,31,3.20
2018,01,22,01,32,1.60
2018,01,22,01,43,1.60
2018,01,22,01,44,3.20
2018,01,22,01,58,3.20
2018,01,22,01,59,4.80
2018,01,22,02,00,4.80
2018,01,22,02,01,3.20
2018,01,22,02,02,3.20
2018,01,22,02,03,3.20
2018,01,22,02,04,3.20
2018,01,22,02,05,3.20
2018,01,22,02,06,3.20
2018,01,22,02,17,4.80
2018,01,22,02,18,3.20
2018,01,22,02,19,3.20
2018,01,22,02,20,4.80
2018,01,22,02,21,3.20
2018,01,22,02,22,4.80
2018,01,22,02,23,3.20
2018,01,22,02,24,3.20
2018,01,22,02,25,1.60
2018,01,22,02,26,3.20
2018,01,22,02,27,3.20
2018,01,22,02,28,3.20
2018,01,22,02,29,3.20
2018,01,22,02,30,3.20
2018,01,22,02,31,1.60
2018,01,22,02,37,4.80
2018,01,22,02,38,1.60
2018,01,22,02,39,1.60
2018,01,22,02,40,1.60
2018,01,22,02,41,6.40
2018,01,22,02,42,4.80
2018,01,22,02,44,4.80
2018,01,22,02,45,1.60
2018,01,22,02,46,1.60
2018,01,22,06,38,4.80
2018,01,22,06,39,6.40
2018,01,22,06,40,8.10
2018,01,22,06,41,6.40
2018,01,22,06,42,6.40
2018,01,22,06,43,6.40
2018,01,22,06,44,4.80
2018,01,22,06,45,3.20
2018,01,22,06,46,1.60
2018,01,22,06,49,1.60
2018,01,22,06,50,1.60
2018,01,22,06,56,1.60
2018,01,22,06,57,3.20
2018,01,22,06,58,3.20
2018,01,22,06,59,4.80
2018,01,22,07,00,4.80
2018,01,22,07,01,3.20
2018,01,22,07,02,3.20
2018,01,22,07,03,3.20
2018,01,22,07,04,3.20
2018,01,22,07,05,4.80
2018,01,22,07,06,4.80
2018,01,22,07,07,4.80
2018,01,22,07,08,3.20
2018,01,22,07,09,4.80
2018,01,22,07,10,4.80
2018,01,22,07,11,1.60
2018,01,22,07,12,3.20
2018,01,22,07,13,3.20
2018,01,22,07,14,3.20
2018,01,22,07,15,1.60
2018,01,22,07,19,3.20
2018,01,22,07,20,4.80
2018,01,22,07,21,3.20
2018,01,22,07,22,3.20
2018,01,22,07,23,3.20
2018,01,22,07,24,3.20
2018,01,22,07,25,4.80
2018,01,22,07,26,3.20
2018,01,22,07,27,3.20
2018,01,22,07,28,3.20
2018,01,22,07,29,6.40
2018,01,22,07,33,3.20
2018,01,22,07,34,3.20
2018,01,22,07,35,3.20
2018,01,22,07,36,3.20
2018,01,22,07,37,1.60
2018,01,22,07,38,1.60
2018,01,22,07,47,3.20
2018,01,22,07,48,4.80
2018,01,22,07,49,4.80
2018,01,22,07,50,4.80
2018,01,22,07,51,3.20
2018,01,22,07,52,4.80
2018,01,22,07,53,4.80
2018,01,22,07,54,6.40
2018,01,22,07,55,4.80
2018,01,22,07,56,4.80
2018,01,22,07,57,3.20
2018,01,22,07,58,3.20
2018,01,22,07,59,4.80
2018,01,22,08,00,3.20
2018,01,22,08,01,3.20
2018,01,22,08,02,3.20
2018,01,22,08,03,3.20
2018,01,22,08,04,3.20
2018,01,22,08,05,3.20
2018,01,22,08,06,3.20
2018,01,22,08,07,1.60
2018,01,22,08,08,1.60
2018,01,22,08,13,1.60
2018,01,22,08,14,1.60
2018,01,22,08,16,3.20
2018,01,22,08,17,3.20
2018,01,22,08,18,3.20
2018,01,22,08,19,3.20
2018,01,22,08,20,3.20
2018,01,22,08,21,3.20
2018,01,22,08,22,4.80
2018,01,22,08,23,3.20
2018,01,22,08,24,3.20
2018,01,22,08,25,3.20
2018,01,22,08,26,4.80
2018,01,22,08,27,4.80
2018,01,22,08,28,3.20
2018,01,22,08,29,4.80
2018,01,22,08,30,6.40
2018,01,22,08,31,6.40
2018,01,22,08,32,4.80
2018,01,22,08,33,4.80
2018,01,22,08,34,3.20
2018,01,22,08,35,4.80
2018,01,22,08,36,3.20
2018,01,22,09,02,3.20
2018,01,22,09,03,3.20
2018,01,22,09,04,3.20
2018,01,22,09,33,6.40
2018,01,22,09,34,4.80
2018,01,22,09,35,3.20
2018,01,22,09,36,6.40
2018,01,22,09,37,6.40
2018,01,22,09,38,4.80
2018,01,22,09,39,6.40
2018,01,22,09,40,4.80
2018,01,22,09,41,8.10
2018,01,22,09,42,6.40
2018,01,22,09,43,4.80
2018,01,22,09,44,4.80
2018,01,22,09,45,3.20
2018,01,22,09,46,6.40
2018,01,22,09,47,4.80
2018,01,22,09,48,4.80
2018,01,22,09,49,6.40
2018,01,22,09,50,6.40
2018,01,22,09,51,6.40
2018,01,22,09,52,4.80
2018,01,22,09,53,3.20
2018,01,22,09,54,4.80
2018,01,22,09,55,6.40
2018,01,22,09,56,4.80
2018,01,22,09,57,4.80
2018,01,22,09,58,4.80
2018,01,22,09,59,3.20
2018,01,22,10,00,4.80
2018,01,22,10,01,6.40
2018,01,22,10,02,4.80
2018,01,22,10,03,4.80
2018,01,22,10,04,3.20
2018,01,22,10,14,8.10
2018,01,22,10,15,4.80
2018,01,22,10,16,4.80
2018,01,22,10,17,6.40
2018,01,22,10,18,6.40
2018,01,22,10,19,4.80
2018,01,22,10,20,4.80
2018,01,22,10,21,3.20
2018,01,22,10,22,4.80
2018,01,22,10,23,4.80
2018,01,22,10,24,4.80
2018,01,22,10,25,4.80
2018,01,22,10,26,4.80
2018,01,22,10,27,6.40
2018,01,22,10,28,4.80
2018,01,22,10,30,6.40
2018,01,22,10,31,4.80
2018,01,22,10,32,4.80
2018,01,22,10,33,3.20
2018,01,22,10,34,3.20
2018,01,22,10,35,4.80
2018,01,22,10,36,3.20
2018,01,22,12,52,6.40
2018,01,22,12,53,6.40
2018,01,22,12,54,4.80
2018,01,22,12,55,3.20
2018,01,22,12,56,4.80
2018,01,22,12,57,8.10
2018,01,22,12,58,8.10
2018,01,22,12,59,4.80
2018,01,22,13,00,3.20
2018,01,22,13,01,1.60
2018,01,22,13,08,8.10
2018,01,22,13,09,8.10
2018,01,22,13,10,6.40
2018,01,22,13,11,4.80
2018,01,22,13,12,6.40
2018,01,22,13,13,6.40
2018,01,22,13,14,6.40
2018,01,22,13,15,8.10
2018,01,22,13,16,6.40
2018,01,22,13,17,6.40
2018,01,22,13,18,3.20
2018,01,22,13,19,3.20
2018,01,22,13,20,4.80
2018,01,22,13,21,1.60
2018,01,22,13,22,3.20
2018,01,22,13,23,1.60
2018,01,22,13,24,1.60
2018,01,22,13,25,1.60
2018,01,22,13,26,1.60
2018,01,22,13,27,6.40
2018,01,22,13,28,6.40
2018,01,22,13,29,4.80
2018,01,22,13,30,3.20
2018,01,22,13,33,8.10
2018,01,22,13,34,9.60
2018,01,22,13,35,6.40
2018,01,22,13,36,4.80
2018,01,22,13,37,4.80
2018,01,22,13,38,6.40
2018,01,22,13,39,6.40
2018,01,22,13,40,8.10
2018,01,22,13,41,6.40
2018,01,22,13,42,4.80
2018,01,22,13,43,6.40
2018,01,22,13,44,4.80
2018,01,22,13,45,4.80
2018,01,22,13,46,3.20
2018,01,22,13,47,4.80
2018,01,22,13,48,6.40
2018,01,22,13,49,6.40
2018,01,22,13,50,4.80
2018,01,22,13,51,1.60
2018,01,22,13,52,4.80
2018,01,22,13,53,4.80
2018,01,22,13,54,3.20
2018,01,22,13,55,4.80
2018,01,22,13,56,4.80
2018,01,22,13,57,3.20
2018,01,22,14,08,11.30
2018,01,22,14,09,11.30
2018,01,22,14,10,12.90
2018,01,22,14,11,11.30
2018,01,22,14,12,12.90
2018,01,22,14,13,11.30
2018,01,22,14,14,14.50
2018,01,22,14,15,12.90
2018,01,22,14,16,12.90
2018,01,22,14,17,12.90
2018,01,22,14,18,11.30
2018,01,22,14,19,14.50
2018,01,22,14,20,8.10
2018,01,22,14,21,14.50
2018,01,22,14,22,14.50
2018,01,22,14,23,14.50
2018,01,22,14,24,12.90
2018,01,22,14,25,12.90
2018,01,22,14,26,12.90
2018,01,22,14,27,12.90
2018,01,22,14,28,8.10
2018,01,22,14,29,14.50
2018,01,22,14,30,14.50
2018,01,22,14,31,11.30
2018,01,22,14,32,12.90
2018,01,22,14,33,8.10
2018,01,22,14,34,6.40
2018,01,22,14,35,6.40
2018,01,22,14,36,6.40
2018,01,22,14,37,8.10
2018,01,22,14,38,6.40
2018,01,22,14,39,8.10
2018,01,22,14,40,8.10
2018,01,22,14,41,11.30
2018,01,22,14,42,9.60
2018,01,22,14,43,9.60
2018,01,22,14,44,6.40
2018,01,22,14,45,8.10
2018,01,22,14,46,6.40
2018,01,22,14,47,8.10
2018,01,22,14,48,11.30
2018,01,22,14,49,12.90
2018,01,22,14,50,14.50
2018,01,22,14,51,14.50
2018,01,22,14,52,12.90
2018,01,22,14,53,12.90
2018,01,22,14,54,11.30
2018,01,22,14,55,9.60
2018,01,22,14,56,11.30
2018,01,22,14,57,9.60
2018,01,22,14,58,6.40
2018,01,22,14,59,8.10
2018,01,22,15,00,6.40
2018,01,22,15,01,6.40
2018,01,22,15,02,3.20
2018,01,22,15,03,3.20
2018,01,22,15,04,3.20
2018,01,22,15,05,4.80
2018,01,22,15,06,6.40
2018,01,22,15,07,8.10
2018,01,22,15,08,8.10
2018,01,22,15,09,6.40
2018,01,22,15,10,6.40
2018,01,22,15,11,6.40
2018,01,22,15,12,6.40
2018,01,22,15,13,6.40
2018,01,22,15,14,6.40
2018,01,22,15,15,4.80
2018,01,22,15,16,4.80
2018,01,22,15,17,6.40
2018,01,22,15,18,6.40
2018,01,22,15,19,4.80
2018,01,22,15,20,8.10
2018,01,22,15,21,8.10
2018,01,22,15,22,6.40
2018,01,22,15,23,11.30
2018,01,22,15,24,8.10
2018,01,22,15,25,8.10
2018,01,22,15,26,9.60
2018,01,22,15,27,8.10
2018,01,22,15,28,8.10
2018,01,22,15,29,4.80
2018,01,22,15,30,6.40
2018,01,22,15,31,6.40
2018,01,22,15,32,4.80
2018,01,22,15,33,4.80
2018,01,22,15,34,6.40
2018,01,22,15,35,6.40
2018,01,22,15,36,6.40
2018,01,22,15,37,6.40
2018,01,22,15,38,6.40
2018,01,22,15,39,6.40
2018,01,22,15,40,8.10
2018,01,22,15,41,8.10
2018,01,22,15,42,8.10
2018,01,22,15,43,6.40
2018,01,22,15,44,4.80
2018,01,22,15,45,4.80
2018,01,22,15,46,4.80
2018,01,22,15,47,4.80
2018,01,22,18,24,1.60
2018,01,22,18,34,6.40
2018,01,22,18,35,8.10
2018,01,22,18,36,3.20
2018,01,22,18,37,3.20
2018,01,22,18,38,3.20
2018,01,22,18,39,3.20
2018,01,22,18,44,1.60
2018,01,22,18,45,1.60
2018,01,22,19,02,3.20
2018,01,22,19,03,3.20
2018,01,22,19,05,1.60
2018,01,22,19,06,3.20
2018,01,22,19,07,4.80
2018,01,22,19,08,4.80
2018,01,22,19,09,1.60
2018,01,22,19,10,1.60
2018,01,22,19,38,4.80
2018,01,22,19,39,3.20
2018,01,22,19,40,3.20
2018,01,22,19,41,3.20
2018,01,22,19,42,1.60
2018,01,22,19,43,1.60
2018,01,22,19,44,1.60
2018,01,22,19,46,1.60
2018,01,22,19,47,1.60
2018,01,22,19,48,1.60
2018,01,22,19,49,3.20
2018,01,22,19,50,4.80
2018,01,22,19,51,4.80
2018,01,22,19,52,4.80
2018,01,22,19,53,4.80
2018,01,22,19,55,3.20
2018,01,22,19,56,3.20
2018,01,22,20,07,3.20
2018,01,22,20,08,3.20
2018,01,22,20,09,3.20
2018,01,22,20,10,1.60
2018,01,22,22,29,4.80
2018,01,22,22,30,4.80
2018,01,22,22,31,3.20
2018,01,22,22,32,3.20
2018,01,22,22,33,3.20
2018,01,22,22,34,1.60
2018,01,22,22,35,3.20
2018,01,22,22,36,4.80
2018,01,22,22,37,6.40
2018,01,22,22,38,3.20
2018,01,22,22,39,3.20
2018,01,22,22,40,4.80
2018,01,22,22,41,3.20
2018,01,22,22,42,3.20
2018,01,22,22,43,4.80
2018,01,22,22,44,3.20
2018,01,22,22,45,4.80
2018,01,22,22,46,3.20
2018,01,22,22,47,4.80
2018,01,22,22,48,6.40
2018,01,22,22,49,4.80
2018,01,22,22,50,4.80
2018,01,22,22,51,6.40
2018,01,22,22,52,4.80
2018,01,22,22,53,6.40
2018,01,22,22,54,6.40
2018,01,22,22,55,3.20
2018,01,22,22,56,6.40
2018,01,22,22,57,3.20
2018,01,22,22,58,4.80
2018,01,22,22,59,4.80
2018,01,22,23,00,4.80
2018,01,22,23,01,1.60
2018,01,22,23,08,3.20
2018,01,22,23,09,3.20
2018,01,22,23,10,3.20
2018,01,22,23,11,1.60
2018,01,22,23,12,3.20
2018,01,22,23,13,3.20
2018,01,22,23,14,6.40
2018,01,22,23,15,8.10
2018,01,22,23,16,6.40
2018,01,22,23,17,3.20
2018,01,22,23,18,4.80
2018,01,22,23,19,3.20
2018,01,22,23,23,4.80
2018,01,22,23,24,4.80
2018,01,22,23,25,4.80
2018,01,22,23,26,6.40
2018,01,22,23,27,8.10
2018,01,22,23,28,4.80
2018,01,22,23,29,8.10
2018,01,22,23,30,11.30
2018,01,22,23,31,9.60
2018,01,22,23,32,9.60
2018,01,22,23,33,8.10
2018,01,22,23,34,9.60
2018,01,22,23,35,8.10
2018,01,22,23,36,9.60
2018,01,22,23,37,8.10
2018,01,22,23,38,6.40
2018,01,22,23,39,12.90
2018,01,22,23,40,9.60
2018,01,22,23,41,9.60
2018,01,22,23,42,16.10
2018,01,22,23,43,9.60
2018,01,22,23,44,9.60
2018,01,22,23,45,11.30
2018,01,22,23,46,9.60
2018,01,22,23,47,11.30
2018,01,22,23,48,14.50
2018,01,22,23,49,14.50
2018,01,22,23,50,9.60
2018,01,22,23,51,9.60
2018,01,22,23,52,11.30
2018,01,22,23,53,9.60
2018,01,22,23,54,12.90
2018,01,22,23,55,17.70
2018,01,22,23,56,12.90
2018,01,22,23,57,9.60
2018,01,22,23,58,11.30
2018,01,22,23,59,14.50
